Date String (YYYY-MM-DD hh:mm:ss) UTC,Instrument flags,Ambient pressure (hPa),Sample flow (lpm),Bypass flow (lpm),Sample temperature (°C),Ambient temperature (°C),ASC tube jacket temperature (°C),LED temperature (°C),Box temperature (°C),Sample RH (%),Span deviation,Mass concentration (μg/m³),Mass concentration (μg/m³),Mass concentration (μg/m³)
DateTimeUTC,F1_M11,P_M11,Q1_M11,Q2_M11,T1_M11,T2_M11,T3_M11,T4_M11,T5_M11,U1_M11,ZSPAN_M11,X0_M11,X2_M11,X1_M11
2022-12-28 06:00:00,,0807.2,5.00,0.00,24.9,23.6,00.0,33.8,26.7,14.6,0000.0,0000.45,0000.07,0000.04
2022-12-28 06:01:00,,0807.3,5.00,0.00,24.9,23.6,00.0,33.8,26.7,14.5,0000.0,0000.41,0000.06,0000.04
2022-12-28 06:02:00,,0807.2,4.99,0.00,24.9,23.6,00.0,33.8,26.7,14.3,0000.0,0000.10,0000.06,0000.04
2022-12-28 06:03:00,,0807.1,4.99,0.00,24.9,23.5,00.0,33.8,26.7,14.3,0000.0,0000.10,0000.06,0000.04
2022-12-28 06:04:00,,0807.1,5.00,0.00,24.9,23.5,00.0,33.8,26.6,14.3,0000.0,0000.10,0000.06,0000.04
2022-12-28 06:05:00,,0807.1,5.00,0.00,24.9,23.5,00.0,33.8,26.7,14.3,0000.0,0000.12,0000.06,0000.04
2022-12-28 06:06:00,,0807.1,5.00,0.00,24.9,23.4,00.0,33.8,26.6,14.3,0000.0,0000.15,0000.07,0000.04
2022-12-28 06:07:00,,0807.1,5.00,0.00,24.9,23.4,00.0,33.8,26.6,14.3,0000.0,0000.17,0000.08,0000.04
2022-12-28 06:08:00,,0807.1,5.00,0.00,24.9,23.4,00.0,33.8,26.5,14.4,0000.0,0000.19,0000.09,0000.04
2022-12-28 06:09:00,,0807.1,4.99,0.00,24.8,23.4,00.0,33.8,26.5,14.5,0000.0,0000.21,0000.10,0000.04
2022-12-28 06:10:00,,0807.1,5.00,0.00,24.8,23.4,00.0,33.8,26.6,14.7,0000.0,0000.95,0000.11,0000.04
2022-12-28 06:11:00,,0807.1,5.00,0.00,24.8,23.4,00.0,33.8,26.6,14.7,0000.0,0001.81,0000.10,0000.04
2022-12-28 06:12:00,,0807.0,5.00,0.00,24.8,23.3,00.0,33.8,26.6,14.6,0000.0,0001.88,0000.14,0000.04
2022-12-28 06:13:00,,0806.9,5.00,0.00,24.8,23.3,00.0,33.8,26.6,14.5,0000.0,0001.92,0000.15,0000.04
2022-12-28 06:14:00,,0807.0,5.00,0.00,24.8,23.3,00.0,33.7,26.6,14.5,0000.0,0001.92,0000.15,0000.04
2022-12-28 06:15:00,,0807.0,5.00,0.00,24.8,23.3,00.0,33.7,26.6,14.5,0000.0,0001.92,0000.15,0000.04
2022-12-28 06:16:00,,0807.1,5.00,0.00,24.8,23.3,00.0,33.7,26.6,14.4,0000.0,0001.92,0000.16,0000.04
2022-12-28 06:17:00,,0807.1,5.01,0.00,24.8,23.2,00.0,33.7,26.5,14.4,0000.0,0001.89,0000.15,0000.04
2022-12-28 06:18:00,,0807.1,4.99,0.00,24.8,23.2,00.0,33.7,26.5,14.8,0000.0,0001.96,0000.16,0000.04
2022-12-28 06:19:00,,0807.1,4.99,0.00,24.8,23.2,00.0,33.7,26.5,14.6,0000.0,0001.97,0000.15,0000.04
2022-12-28 06:20:00,,0807.0,4.99,0.00,24.7,23.2,00.0,33.7,26.5,14.7,0000.0,0001.98,0000.14,0000.04
2022-12-28 06:21:00,,0806.9,5.00,0.00,24.7,23.2,00.0,33.7,26.5,14.6,0000.0,0001.52,0000.14,0000.04
2022-12-28 06:22:00,,0806.8,5.00,0.00,24.7,23.2,00.0,33.7,26.5,14.4,0000.0,0000.49,0000.15,0000.04
2022-12-28 06:23:00,,0806.8,5.00,0.00,24.7,23.2,00.0,33.7,26.4,14.5,0000.0,0000.46,0000.13,0000.04
2022-12-28 06:24:00,,0806.8,5.01,0.00,24.7,23.1,00.0,33.6,26.5,14.6,0000.0,0000.45,0000.13,0000.04
2022-12-28 06:25:00,,0806.8,5.01,0.00,24.7,23.1,00.0,33.6,26.5,14.2,0000.0,0000.47,0000.13,0000.04
2022-12-28 06:26:00,,0806.8,5.00,0.00,24.7,23.1,00.0,33.6,26.5,14.3,0000.0,0000.50,0000.14,0000.04
2022-12-28 06:27:00,,0806.6,5.01,0.00,24.7,23.1,00.0,33.6,26.5,14.5,0000.0,0000.49,0000.13,0000.04
2022-12-28 06:28:00,,0806.8,5.00,0.00,24.7,23.1,00.0,33.6,26.4,14.4,0000.0,0000.53,0000.14,0000.04
2022-12-28 06:29:00,,0806.8,5.00,0.00,24.7,23.1,00.0,33.6,26.4,14.7,0000.0,0000.59,0000.14,0000.04
2022-12-28 06:30:00,,0806.9,4.99,0.00,24.6,23.0,00.0,33.6,26.4,14.7,0000.0,0000.61,0000.15,0000.04
2022-12-28 06:31:00,,0806.8,5.00,0.00,24.6,23.0,00.0,33.6,26.3,14.7,0000.0,0000.59,0000.15,0000.03
2022-12-28 06:32:00,,0806.9,5.00,0.00,24.6,23.0,00.0,33.6,26.3,14.5,0000.0,0000.49,0000.15,0000.03
2022-12-28 06:33:00,,0806.8,5.00,0.00,24.6,23.0,00.0,33.6,26.3,14.5,0000.0,0000.49,0000.15,0000.03
2022-12-28 06:34:00,,0806.8,5.00,0.00,24.6,23.0,00.0,33.5,26.3,14.5,0000.0,0000.60,0000.16,0000.03
2022-12-28 06:35:00,,0806.8,5.00,0.00,24.6,23.0,00.0,33.5,26.3,14.3,0000.0,0000.56,0000.14,0000.03
2022-12-28 06:36:00,,0806.8,5.00,0.00,24.6,23.0,00.0,33.5,26.3,14.6,0000.0,0000.57,0000.14,0000.03
2022-12-28 06:37:00,,0806.8,5.00,0.00,24.6,23.0,00.0,33.5,26.3,14.5,0000.0,0000.62,0000.16,0000.04
2022-12-28 06:38:00,,0806.8,4.99,0.00,24.6,23.0,00.0,33.5,26.3,14.3,0000.0,0000.60,0000.15,0000.04
2022-12-28 06:39:00,,0806.9,5.00,0.00,24.5,22.9,00.0,33.5,26.2,14.3,0000.0,0000.55,0000.14,0000.04
2022-12-28 06:40:00,,0806.8,5.00,0.00,24.5,22.9,00.0,33.5,26.1,14.7,0000.0,0000.41,0000.12,0000.04
2022-12-28 06:41:00,,0806.8,5.00,0.00,24.5,22.9,00.0,33.5,26.1,14.6,0000.0,0000.36,0000.11,0000.04
2022-12-28 06:42:00,,0806.8,5.00,0.00,24.5,22.9,00.0,33.4,26.1,14.6,0000.0,0000.38,0000.12,0000.04
2022-12-28 06:43:00,,0806.8,5.00,0.00,24.5,22.9,00.0,33.4,26.2,14.4,0000.0,0000.36,0000.12,0000.04
2022-12-28 06:44:00,,0806.8,4.99,0.00,24.5,22.9,00.0,33.4,26.1,14.6,0000.0,0000.33,0000.11,0000.04
2022-12-28 06:45:00,,0806.8,4.99,0.00,24.5,22.9,00.0,33.4,26.0,14.6,0000.0,0000.40,0000.11,0000.04
2022-12-28 06:46:00,,0806.8,5.01,0.00,24.4,22.9,00.0,33.4,26.1,14.7,0000.0,0000.51,0000.13,0000.04
2022-12-28 06:47:00,,0806.8,5.01,0.00,24.4,22.9,00.0,33.4,26.1,14.5,0000.0,0000.48,0000.12,0000.04
2022-12-28 06:48:00,,0806.8,5.00,0.00,24.4,22.9,00.0,33.4,26.2,14.2,0000.0,0000.41,0000.10,0000.04
2022-12-28 06:49:00,,0806.8,5.00,0.00,24.4,22.9,00.0,33.4,26.1,14.4,0000.0,0000.43,0000.10,0000.04
2022-12-28 06:50:00,,0806.8,5.00,0.00,24.4,22.9,00.0,33.4,26.1,14.3,0000.0,0000.81,0000.11,0000.04
2022-12-28 06:51:00,,0806.9,5.00,0.00,24.4,22.8,00.0,33.4,26.1,14.2,0000.0,0001.68,0000.13,0000.04
2022-12-28 06:52:00,,0806.9,5.00,0.00,24.4,22.8,00.0,33.4,26.1,14.4,0000.0,0001.72,0000.15,0000.04
2022-12-28 06:53:00,,0806.8,5.00,0.00,24.4,22.8,00.0,33.4,26.1,14.5,0000.0,0001.73,0000.16,0000.04
2022-12-28 06:54:00,,0806.8,5.00,0.00,24.4,22.8,00.0,33.3,26.1,14.6,0000.0,0001.74,0000.16,0000.04
2022-12-28 06:55:00,,0806.8,5.00,0.00,24.4,22.8,00.0,33.3,26.1,14.5,0000.0,0001.78,0000.17,0000.04
2022-12-28 06:56:00,,0806.9,4.99,0.00,24.4,22.8,00.0,33.3,26.0,14.5,0000.0,0001.62,0000.17,0000.03
2022-12-28 06:57:00,,0806.8,5.00,0.00,24.4,22.8,00.0,33.3,26.0,14.5,0000.0,0001.48,0000.14,0000.03
2022-12-28 06:58:00,,0806.8,5.00,0.00,24.3,22.8,00.0,33.3,26.0,14.3,0000.0,0001.55,0000.15,0000.03
2022-12-28 06:59:00,,0806.9,5.00,0.00,24.3,22.8,00.0,33.3,26.0,14.4,0000.0,0001.63,0000.15,0000.03
